When you browse on this site, cookies collect data to enhance your experience and personalize the content and advertising you see.
Visit our Privacy Policy to learn more. By continuing to use the site, you agree to this use of cookies and data.
  • In United Kingdom
  • List of Countries
  • For 7 days
  • Water Temperature
  • Satellite Maps
  • Weather Map
  • Weather Widgets
  • user-avatar
    Login

    Hourly Weather Tlalixtac de Cabrera

    Today, 21 March, Thursday

    Time Temperature Precipitation Wind Pressure Humidity
    00:00 +18°C° 0 mm 1 mps 632 mmHg 87%
    01:00 +18°C° 0 mm 1 mps 632 mmHg 88%
    02:00 +16°C° 0 mm 1 mps 631 mmHg 88%
    03:00 +16°C° 0 mm 1 mps 631 mmHg 89%
    04:00 +16°C° 0 mm 1 mps 631 mmHg 89%
    05:00 +16°C° 0 mm 1 mps 631 mmHg 89%
    06:00 +15°C° 0 mm 1 mps 631 mmHg 89%
    07:00 +17°C° 0 mm 2 mps 632 mmHg 81%
    08:00 +18°C° 0 mm 2 mps 633 mmHg 73%
    09:00 +19°C° 0 mm 2 mps 634 mmHg 65%
    10:00 +21°C° 0 mm 2 mps 634 mmHg 59%
    11:00 +24°C° 0 mm 2 mps 634 mmHg 52%
    12:00 +25°C° 0 mm 2 mps 635 mmHg 46%
    13:00 +25°C° 0 mm 3 mps 634 mmHg 46%
    14:00 +26°C° 0 mm 3 mps 633 mmHg 45%
    15:00 +26°C° 0 mm 3 mps 633 mmHg 44%
    16:00 +25°C° 0 mm 3 mps 633 mmHg 49%
    17:00 +24°C° 0 mm 3 mps 632 mmHg 54%
    18:00 +22°C° 0 mm 3 mps 632 mmHg 58%
    19:00 +21°C° 0 mm 2 mps 632 mmHg 64%
    20:00 +19°C° 0 mm 2 mps 632 mmHg 69%
    21:00 +18°C° 0 mm 2 mps 633 mmHg 75%
    22:00 +18°C° 0 mm 2 mps 633 mmHg 78%
    23:00 +17°C° 0 mm 2 mps 633 mmHg 81%

    Tomorrow, 22 March, Friday

    Time Temperature Precipitation Wind Pressure Humidity
    00:00 +16°C° 0 mm 2 mps 633 mmHg 83%
    01:00 +16°C° 0 mm 2 mps 632 mmHg 83%
    02:00 +16°C° 0 mm 1 mps 632 mmHg 84%
    03:00 +15°C° 0 mm 1 mps 631 mmHg 84%
    04:00 +15°C° 0 mm 1 mps 631 mmHg 86%
    05:00 +15°C° 0 mm 1 mps 631 mmHg 87%
    06:00 +14°C° 0 mm 1 mps 631 mmHg 89%
    07:00 +16°C° 0 mm 1 mps 632 mmHg 79%
    08:00 +19°C° 0 mm 1 mps 633 mmHg 70%
    09:00 +21°C° 0 mm 1 mps 634 mmHg 61%
    10:00 +23°C° 0 mm 1 mps 634 mmHg 53%
    11:00 +26°C° 0 mm 1 mps 635 mmHg 45%
    12:00 +28°C° 0 mm 1 mps 635 mmHg 38%
    13:00 +28°C° 0.2 mm 1 mps 634 mmHg 39%
    14:00 +27°C° 0.2 mm 1 mps 633 mmHg 41%
    15:00 +27°C° 0.2 mm 2 mps 632 mmHg 42%
    16:00 +26°C° 0.5 mm 2 mps 632 mmHg 47%
    17:00 +24°C° 0.5 mm 2 mps 632 mmHg 53%
    18:00 +23°C° 0.5 mm 2 mps 631 mmHg 58%
    19:00 +21°C° 0.3 mm 2 mps 632 mmHg 63%
    20:00 +21°C° 0.3 mm 1 mps 632 mmHg 68%
    21:00 +20°C° 0.3 mm 1 mps 632 mmHg 74%
    22:00 +19°C° 0 mm 1 mps 632 mmHg 77%
    23:00 +18°C° 0 mm 1 mps 632 mmHg 81%

    Day after tomorrow, 23 March, Saturday

    Time Temperature Precipitation Wind Pressure Humidity
    00:00 +18°C° 0 mm 1 mps 632 mmHg 85%
    01:00 +15°C° 0 mm 0 mps 631 mmHg 87%
    02:00 +15°C° 0 mm 0 mps 631 mmHg 89%
    03:00 +14°C° 0 mm 0 mps 630 mmHg 90%
    04:00 +14°C° 0 mm 0 mps 630 mmHg 91%
    05:00 +14°C° 0 mm 0 mps 630 mmHg 91%
    06:00 +13°C° 0 mm 0 mps 630 mmHg 91%
    07:00 +16°C° 0 mm 0 mps 631 mmHg 81%
    08:00 +20°C° 0 mm 1 mps 632 mmHg 70%
    09:00 +23°C° 0 mm 1 mps 634 mmHg 60%
    10:00 +25°C° 0 mm 1 mps 634 mmHg 50%
    11:00 +27°C° 0 mm 1 mps 635 mmHg 40%
    12:00 +30°C° 0 mm 1 mps 635 mmHg 30%
    13:00 +30°C° 0 mm 1 mps 634 mmHg 29%
    14:00 +29°C° 0 mm 1 mps 633 mmHg 29%
    15:00 +29°C° 0 mm 1 mps 633 mmHg 28%
    16:00 +28°C° 0.1 mm 2 mps 632 mmHg 34%
    17:00 +26°C° 0.1 mm 2 mps 632 mmHg 41%
    18:00 +25°C° 0.1 mm 2 mps 631 mmHg 47%
    19:00 +23°C° 0.1 mm 2 mps 632 mmHg 54%
    20:00 +21°C° 0.1 mm 2 mps 632 mmHg 60%
    21:00 +21°C° 0.1 mm 1 mps 632 mmHg 66%
    22:00 +20°C° 0 mm 1 mps 632 mmHg 70%
    23:00 +19°C° 0 mm 1 mps 632 mmHg 74%

    24 March, Sunday

    Time Temperature Precipitation Wind Pressure Humidity
    00:00 +16°C° 0 mm 0 mps 632 mmHg 78%
    01:00 +16°C° 0 mm 0 mps 631 mmHg 80%
    02:00 +15°C° 0 mm 0 mps 631 mmHg 81%
    03:00 +15°C° 0 mm 0 mps 630 mmHg 83%
    04:00 +16°C° 0 mm 1 mps 630 mmHg 84%
    05:00 +15°C° 0 mm 1 mps 630 mmHg 86%
    06:00 +15°C° 0 mm 1 mps 630 mmHg 87%
    07:00 +19°C° 0 mm 1 mps 632 mmHg 77%
    08:00 +21°C° 0 mm 1 mps 633 mmHg 66%
    09:00 +23°C° 0 mm 1 mps 634 mmHg 56%
    10:00 +25°C° 0 mm 1 mps 635 mmHg 48%
    11:00 +27°C° 0 mm 1 mps 635 mmHg 40%
    12:00 +30°C° 0 mm 1 mps 635 mmHg 32%
    13:00 +29°C° 0 mm 2 mps 634 mmHg 33%
    14:00 +28°C° 0 mm 2 mps 633 mmHg 35%
    15:00 +28°C° 0 mm 2 mps 632 mmHg 36%
    16:00 +27°C° 0.1 mm 2 mps 632 mmHg 41%
    17:00 +26°C° 0.1 mm 2 mps 632 mmHg 45%
    18:00 +25°C° 0.1 mm 2 mps 632 mmHg 50%
    19:00 +24°C° 0 mm 2 mps 632 mmHg 59%
    20:00 +21°C° 0 mm 2 mps 632 mmHg 68%
    21:00 +19°C° 0 mm 2 mps 632 mmHg 77%
    22:00 +18°C° 0 mm 2 mps 632 mmHg 81%
    23:00 +17°C° 0 mm 2 mps 631 mmHg 85%

    25 March, Monday

    Time Temperature Precipitation Wind Pressure Humidity
    00:00 +18°C° 0 mm 1 mps 631 mmHg 89%
    01:00 +16°C° 0 mm 1 mps 631 mmHg 88%
    02:00 +15°C° 0 mm 1 mps 630 mmHg 87%
    03:00 +15°C° 0 mm 1 mps 629 mmHg 86%
    04:00 +14°C° 0 mm 1 mps 629 mmHg 85%
    05:00 +14°C° 0 mm 1 mps 629 mmHg 83%
    06:00 +14°C° 0 mm 1 mps 629 mmHg 82%
    07:00 +16°C° 0 mm 1 mps 631 mmHg 69%
    08:00 +20°C° 0 mm 1 mps 632 mmHg 57%
    09:00 +22°C° 0 mm 1 mps 633 mmHg 45%
    10:00 +25°C° 0 mm 1 mps 634 mmHg 37%
    11:00 +27°C° 0 mm 1 mps 634 mmHg 29%
    12:00 +29°C° 0 mm 1 mps 634 mmHg 21%
    13:00 +30°C° 0 mm 2 mps 634 mmHg 20%
    14:00 +30°C° 0 mm 2 mps 633 mmHg 19%
    15:00 +30°C° 0 mm 3 mps 632 mmHg 18%
    16:00 +29°C° 0 mm 3 mps 632 mmHg 23%
    17:00 +28°C° 0 mm 3 mps 632 mmHg 28%
    18:00 +26°C° 0 mm 3 mps 632 mmHg 33%
    19:00 +24°C° 0 mm 3 mps 632 mmHg 44%
    20:00 +20°C° 0 mm 3 mps 631 mmHg 55%
    21:00 +17°C° 0 mm 2 mps 631 mmHg 66%
    22:00 +17°C° 0 mm 2 mps 631 mmHg 67%
    23:00 +16°C° 0 mm 2 mps 631 mmHg 68%

    26 March, Tuesday

    Time Temperature Precipitation Wind Pressure Humidity
    00:00 +15°C° 0 mm 2 mps 630 mmHg 70%
    01:00 +14°C° 0 mm 2 mps 630 mmHg 70%
    02:00 +14°C° 0 mm 2 mps 630 mmHg 71%
    03:00 +14°C° 0 mm 2 mps 629 mmHg 72%
    04:00 +13°C° 0 mm 2 mps 629 mmHg 73%
    05:00 +13°C° 0 mm 2 mps 629 mmHg 74%
    06:00 +13°C° 0 mm 2 mps 630 mmHg 75%
    07:00 +15°C° 0 mm 2 mps 631 mmHg 63%
    08:00 +18°C° 0 mm 2 mps 632 mmHg 51%
    09:00 +20°C° 0 mm 2 mps 634 mmHg 39%
    10:00 +23°C° 0 mm 2 mps 634 mmHg 32%
    11:00 +25°C° 0 mm 3 mps 634 mmHg 25%
    12:00 +28°C° 0 mm 3 mps 634 mmHg 18%
    13:00 +28°C° 0 mm 4 mps 634 mmHg 17%
    14:00 +28°C° 0 mm 4 mps 634 mmHg 16%
    15:00 +29°C° 0 mm 5 mps 633 mmHg 16%
    16:00 +27°C° 0 mm 4 mps 633 mmHg 20%
    17:00 +25°C° 0 mm 4 mps 632 mmHg 24%
    18:00 +22°C° 0 mm 4 mps 632 mmHg 28%
    19:00 +20°C° 0 mm 3 mps 632 mmHg 40%
    20:00 +18°C° 0 mm 3 mps 632 mmHg 52%
    21:00 +15°C° 0 mm 2 mps 631 mmHg 65%
    22:00 +15°C° 0 mm 2 mps 631 mmHg 70%
    23:00 +14°C° 0 mm 2 mps 632 mmHg 75%
    Show more